Bar Harbor, ME

11:37 PM EST on January 19, 2018 (GMT -0500)
Hancock County-Bar Harbor

Weather History for KBHB - March, 2014

Change the Weather History Date:

Thursday, March 13, 2014

  Actual Average Record
Temperature  
Mean Temperature 22 °F -  
Max Temperature 33 °F 39 °F 54 °F (1973)
Min Temperature 12 °F 22 °F 2 °F (1967)
Degree Days  
Heating Degree Days 42    
Moisture  
Dew Point 16 °F    
Average Humidity 91    
Maximum Humidity 100    
Minimum Humidity 79    
Precipitation  
Precipitation 0.20 in - - ()
Sea Level Pressure  
Sea Level Pressure 29.28 in    
Wind  
Wind Speed 16 mph (NNW)    
Max Wind Speed 30 mph    
Max Gust Speed 43 mph    
Visibility 4 miles    
Events      
Averages and records for this station are not official NWS values.
T = Trace of Precipitation, MM = Missing Value Source: NWS Daily Summary

Daily Weather History Graph

Daily Weather History Graph

Search for Another Location

Airport or City:

Trip Planner

Search our weather history database for the weather conditions in past years. The results will help you decide how hot, cold, wet, or windy it might be!

Date:

Astronomy

Mar. 13, 2014 Rise Set
Actual Time 6:49 AM EDT 6:36 PM EDT
Civil Twilight 6:20 AM EDT 7:05 PM EDT
Nautical Twilight 5:46 AM EDT 7:39 PM EDT
Astronomical Twilight 5:12 AM EDT 8:14 PM EDT
Moon 3:54 PM EDT (3/13) 4:59 AM EDT (3/13)
Length of Visible Light 12h 45m
Length of Day
11h 47m
Waxing Gibbous, 91% of the Moon is Illuminated
Mar 13
Waxing Gibbous
Mar 16
Full
Mar 23
Last Quarter
Mar 30
New
Apr 7
First Quarter

Hourly Weather History & Observations

Time (EDT) Temp. Windchill Dew Point Humidity Pressure Visibility Wind Dir Wind Speed Gust Speed Precip Events Conditions
12:15 AM 33.8 °F 22.2 °F 32.0 °F 93% 29.09 in 5.0 mi NNE 20.7 mph 26.5 mph 0.05 in   Overcast
12:35 AM 33.8 °F 21.6 °F 33.8 °F 100% 29.07 in 7.0 mi NNE 23.0 mph 31.1 mph 0.09 in   Overcast
12:55 AM 33.8 °F 24.3 °F 33.8 °F 100% 29.08 in 5.0 mi North 13.8 mph 19.6 mph 0.13 in   Overcast
1:15 AM 32.0 °F 18.6 °F 32.0 °F 100% 29.05 in 3.0 mi North 25.3 mph 33.4 mph 0.04 in   Overcast
1:35 AM 30.2 °F 18.9 °F 30.2 °F 100% 29.06 in 2.0 mi North 16.1 mph 34.5 mph 0.06 in   Overcast
1:55 AM 28.4 °F 14.7 °F 26.6 °F 93% 29.04 in 2.0 mi North 21.9 mph 29.9 mph 0.06 in   Overcast
2:15 AM 26.6 °F 11.1 °F 24.8 °F 93% 29.02 in 3.0 mi North 26.5 mph 42.6 mph N/A   Overcast
2:35 AM 24.8 °F 10.7 °F 23.0 °F 93% 29.04 in 4.0 mi North 19.6 mph 34.5 mph N/A   Overcast
2:55 AM 23.0 °F 6.9 °F 21.2 °F 93% 29.02 in 5.0 mi North 24.2 mph 31.1 mph N/A   Overcast
3:15 AM 21.2 °F 7.3 °F 21.2 °F 100% 29.04 in 9.0 mi North 16.1 mph 31.1 mph N/A   Overcast
3:35 AM 21.2 °F 6.8 °F 19.4 °F 93% 29.04 in 3.0 mi North 17.3 mph 29.9 mph N/A   Overcast
3:55 AM 21.2 °F 6.0 °F 19.4 °F 93% 29.04 in 3.0 mi North 19.6 mph 27.6 mph N/A   Overcast
4:15 AM 21.2 °F 6.4 °F 19.4 °F 93% 29.03 in 2.0 mi North 18.4 mph 29.9 mph 0.01 in   Overcast
4:35 AM 19.4 °F 5.5 °F 19.4 °F 100% 29.04 in 1.5 mi North 15.0 mph 29.9 mph 0.01 in   Overcast
4:55 AM 19.4 °F 6.0 °F 19.4 °F 100% 29.06 in 2.0 mi North 13.8 mph 26.5 mph 0.01 in   Overcast
5:15 AM 19.4 °F 4.5 °F 17.6 °F 93% 29.07 in 2.5 mi North 17.3 mph 31.1 mph N/A   Overcast
5:35 AM 19.4 °F 2.1 °F 17.6 °F 93% 29.07 in 2.5 mi North 24.2 mph 34.5 mph N/A   Overcast
5:55 AM 19.4 °F 2.1 °F 17.6 °F 93% 29.04 in 3.0 mi NNE 24.2 mph 39.1 mph N/A   Overcast
6:15 AM 19.4 °F 0.5 °F 17.6 °F 93% 29.00 in 5.0 mi NNE 29.9 mph 40.3 mph N/A   Overcast
6:35 AM 19.4 °F 2.5 °F 17.6 °F 93% 29.03 in 4.0 mi North 23.0 mph 33.4 mph N/A   Overcast
6:55 AM 19.4 °F 3.2 °F 17.6 °F 93% 29.07 in 5.0 mi North 20.7 mph 34.5 mph N/A   Overcast
7:15 AM 19.4 °F 6.0 °F 17.6 °F 93% 29.13 in 4.0 mi North 13.8 mph 29.9 mph N/A   Overcast
7:35 AM 19.4 °F 5.5 °F 17.6 °F 93% 29.11 in 1.5 mi North 15.0 mph 24.2 mph N/A   Overcast
7:55 AM 19.4 °F 5.5 °F 17.6 °F 93% 29.08 in 0.8 mi North 15.0 mph 24.2 mph N/A   Overcast
8:15 AM 17.6 °F 2.7 °F 15.8 °F 93% 29.10 in 0.5 mi North 16.1 mph 24.2 mph N/A   Overcast
8:35 AM 17.6 °F 4.3 °F 15.8 °F 93% 29.13 in 0.8 mi North 12.7 mph 21.9 mph N/A   Overcast
8:55 AM 17.6 °F 5.0 °F 15.8 °F 93% 29.15 in 0.8 mi North 11.5 mph 21.9 mph N/A   Overcast
9:15 AM 17.6 °F 7.3 °F 15.8 °F 93% 29.16 in 0.8 mi North 8.1 mph 17.3 mph N/A   Overcast
9:35 AM 17.6 °F 4.3 °F 15.8 °F 93% 29.16 in 1.0 mi North 12.7 mph 24.2 mph N/A   Overcast
9:55 AM 17.6 °F 2.2 °F 15.8 °F 93% 29.16 in 0.8 mi North 17.3 mph 24.2 mph N/A   Overcast
10:15 AM 17.6 °F 1.3 °F 15.8 °F 93% 29.15 in 1.0 mi North 19.6 mph 26.5 mph N/A   Overcast
10:35 AM 17.6 °F 3.2 °F 15.8 °F 93% 29.15 in 1.0 mi North 15.0 mph 25.3 mph N/A   Overcast
10:55 AM 17.6 °F 3.7 °F 15.8 °F 93% 29.16 in 0.8 mi North 13.8 mph 23.0 mph N/A   Overcast
11:15 AM 17.6 °F 2.7 °F 15.8 °F 93% 29.17 in 1.0 mi North 16.1 mph 25.3 mph N/A   Overcast
11:35 AM 17.6 °F 3.2 °F 15.8 °F 93% 29.19 in 1.2 mi North 15.0 mph 27.6 mph N/A   Overcast
11:55 AM 17.6 °F 3.7 °F 14.0 °F 86% 29.20 in 4.0 mi North 13.8 mph 26.5 mph N/A   Overcast
12:15 PM 17.6 °F 7.3 °F 14.0 °F 86% 29.21 in 6.0 mi North 8.1 mph 21.9 mph N/A   Overcast
12:35 PM 17.6 °F 2.2 °F 12.2 °F 79% 29.19 in 3.0 mi North 17.3 mph 29.9 mph N/A   Overcast
12:55 PM 17.6 °F 5.7 °F 12.2 °F 79% 29.24 in 7.0 mi NNW 10.4 mph 24.2 mph N/A   Overcast
1:15 PM 17.6 °F 6.4 °F 14.0 °F 86% 29.25 in 1.5 mi NNW 9.2 mph 16.1 mph N/A   Overcast
1:35 PM 17.6 °F 5.7 °F 14.0 °F 86% 29.26 in 1.0 mi North 10.4 mph 26.5 mph N/A   Overcast
1:55 PM 17.6 °F 3.2 °F 15.8 °F 93% 29.28 in 0.8 mi NNW 15.0 mph 23.0 mph N/A   Overcast
2:15 PM 17.6 °F 4.3 °F 15.8 °F 93% 29.29 in 0.8 mi NW 12.7 mph 19.6 mph N/A   Overcast
2:35 PM 17.6 °F 3.2 °F 14.0 °F 86% 29.30 in 1.2 mi NNW 15.0 mph 24.2 mph N/A   Overcast
2:55 PM 17.6 °F 5.7 °F 15.8 °F 93% 29.31 in 0.8 mi NNW 10.4 mph 19.6 mph N/A   Overcast
3:15 PM 17.6 °F 2.2 °F 14.0 °F 86% 29.32 in 2.0 mi NNW 17.3 mph 27.6 mph N/A   Overcast
3:35 PM 17.6 °F 4.3 °F 12.2 °F 79% 29.33 in 1.0 mi North 12.7 mph 28.8 mph N/A   Overcast
3:55 PM 17.6 °F 5.0 °F 14.0 °F 86% 29.35 in 1.2 mi NNW 11.5 mph 19.6 mph N/A   Overcast
4:15 PM 17.6 °F 4.3 °F 15.8 °F 93% 29.36 in 0.8 mi NNW 12.7 mph 18.4 mph N/A   Overcast
4:35 PM 17.6 °F 3.7 °F 15.8 °F 93% 29.38 in 1.0 mi NNW 13.8 mph 24.2 mph N/A   Overcast
4:55 PM 17.6 °F 5.0 °F 14.0 °F 86% 29.40 in 1.8 mi NNW 11.5 mph 18.4 mph N/A   Overcast
5:15 PM 17.6 °F 4.3 °F 12.2 °F 79% 29.42 in 5.0 mi NNW 12.7 mph 18.4 mph N/A   Overcast
5:35 PM 17.6 °F 7.3 °F 14.0 °F 86% 29.43 in 2.5 mi NNW 8.1 mph - N/A   Mostly Cloudy
5:55 PM 17.6 °F 5.7 °F 14.0 °F 86% 29.45 in 5.0 mi NNW 10.4 mph 17.3 mph N/A   Overcast
6:15 PM 17.6 °F 8.2 °F 14.0 °F 86% 29.47 in 5.0 mi NNW 6.9 mph - N/A   Overcast
6:35 PM 17.6 °F 9.3 °F 14.0 °F 86% 29.49 in 0.8 mi NW 5.8 mph - N/A   Overcast
6:55 PM 15.8 °F 6.1 °F 14.0 °F 93% 29.51 in 0.5 mi NW 6.9 mph - N/A   Overcast
7:15 PM 15.8 °F 6.1 °F 12.2 °F 86% 29.53 in 1.5 mi NW 6.9 mph 18.4 mph N/A   Overcast
7:35 PM 15.8 °F 5.1 °F 12.2 °F 86% 29.56 in 1.8 mi WNW 8.1 mph - N/A   Overcast
7:55 PM 15.8 °F 5.1 °F 12.2 °F 86% 29.57 in 7.0 mi NW 8.1 mph - N/A   Overcast
8:15 PM 14.0 °F 2.9 °F 12.2 °F 93% 29.59 in 10.0 mi NW 8.1 mph - N/A   Mostly Cloudy
8:35 PM 14.0 °F 2.9 °F 10.4 °F 86% 29.61 in 10.0 mi NW 8.1 mph - N/A   Overcast
8:55 PM 14.0 °F 2.0 °F 10.4 °F 86% 29.62 in 10.0 mi NW 9.2 mph - N/A   Overcast
9:15 PM 14.0 °F 6.5 °F 10.4 °F 86% 29.64 in 10.0 mi NW 4.6 mph - N/A   Overcast
9:35 PM 14.0 °F 6.5 °F 10.4 °F 86% 29.66 in 10.0 mi WNW 4.6 mph - N/A   Overcast
9:55 PM 14.0 °F 5.1 °F 10.4 °F 86% 29.67 in 10.0 mi WNW 5.8 mph - N/A   Overcast
10:15 PM 14.0 °F 5.1 °F 10.4 °F 86% 29.68 in 5.0 mi WNW 5.8 mph - N/A   Overcast
10:35 PM 14.0 °F 5.1 °F 10.4 °F 86% 29.69 in 10.0 mi WNW 5.8 mph 17.3 mph N/A   Overcast
10:55 PM 12.2 °F 2.9 °F 10.4 °F 92% 29.71 in 10.0 mi West 5.8 mph - N/A   Overcast
11:15 PM 12.2 °F 1.7 °F 10.4 °F 92% 29.71 in 10.0 mi WNW 6.9 mph - N/A   Mostly Cloudy
11:35 PM 12.2 °F 2.9 °F 8.6 °F 85% 29.72 in 10.0 mi WNW 5.8 mph - N/A   Mostly Cloudy
11:55 PM 12.2 °F 1.7 °F 8.6 °F 85% 29.73 in 10.0 mi WNW 6.9 mph - N/A   Scattered Clouds